DW5450 Weather Reports


time (UTC)temp
C
wind
direction
speed
KPH
gust
KPH
rain 1hr
cm
rain 24hr
cm
rain mn
cm
humidity
%
barometer
mb
20260831174534 27 282 0.0 3.2 0.00 0.00 0.00 71 1012.6
20260831173037 27 222 1.6 4.8 0.00 0.00 0.00 72 1012.7
20260831171538 27 47 0.0 9.7 0.00 0.00 0.00 74 1012.7
20260831170035 28 80 4.8 24.1 0.00 0.00 0.00 74 1012.9
20260831164531 28 98 3.2 19.3 0.00 0.00 0.00 69 1012.7
20260831163035 30 117 1.6 8.0 0.00 0.00 0.00 71 1012.4
20260831161528 31 9 0.0 4.8 0.00 0.00 0.00 73 1012.0
20260831160027 31 9 0.0 0.0 0.00 0.00 0.00 72 1012.1
20260831154527 31 9 0.0 0.0 0.00 0.00 0.00 71 1012.2
20260831153026 30 9 0.0 1.6 0.00 0.00 0.00 71 1012.1
20260831151521 30 9 0.0 0.0 0.00 0.00 0.00 74 1012.0
20260831150017 29 9 0.0 0.0 0.00 0.00 0.00 74 1012.0
20260831144513 28 9 0.0 0.0 0.00 0.00 0.00 77 1011.8
20260831143019 28 9 0.0 0.0 0.00 0.00 0.00 77 1011.7
20260831141518 27 10 0.0 3.2 0.00 0.00 0.00 78 1011.5
20260831140006 27 9 0.0 1.6 0.00 0.00 0.00 78 1011.4
20260831134503 27 9 0.0 0.0 0.00 0.00 0.00 78 1011.2
20260831133004 27 9 0.0 3.2 0.00 0.00 0.00 77 1011.0
20260831131609 27 85 0.0 4.8 0.00 0.00 0.00 77 1010.8
20260831130059 27 323 1.6 4.8 0.00 0.00 0.00 78 1010.8
20260831124609 27 342 0.0 3.2 0.00 0.00 0.00 78 1010.6
20260831123055 26 342 0.0 3.2 0.00 0.00 0.00 78 1010.5
20260831121554 27 355 0.0 4.8 0.00 0.00 0.00 78 1010.3
20260831120052 27 322 0.0 3.2 0.00 0.00 0.00 78 1010.3
20260831114551 27 321 0.0 3.2 0.00 0.00 0.00 77 1010.3
20260831113053 27 321 0.0 3.2 0.00 0.00 0.00 76 1010.4
20260831111547 27 313 3.2 4.8 0.00 0.00 0.00 76 1010.3
20260831104540 27 329 0.0 3.2 0.00 0.00 0.00 75 1010.0
20260831103039 27 312 0.0 6.4 0.00 0.00 0.00 75 1009.9
20260831101549 27 315 0.0 8.0 0.00 0.00 0.00 75 1009.9
20260831100045 27 319 0.0 1.6 0.00 0.00 0.00 75 1010.0
20260831094540 27 319 0.0 1.6 0.00 0.00 0.00 75 1010.1
20260831093035 27 319 0.0 1.6 0.00 0.00 0.00 75 1010.1
20260831091533 27 319 0.0 1.6 0.00 0.00 0.00 75 1010.4
20260831090030 27 319 0.0 1.6 0.00 0.00 0.00 75 1010.5
20260831084529 27 319 0.0 3.2 0.00 0.00 0.00 75 1010.7
20260831083027 27 311 0.0 1.6 0.00 0.00 0.00 75 1010.8
20260831081527 27 311 0.0 6.4 0.00 0.00 0.00 76 1010.8
20260831080026 27 338 0.0 4.8 0.00 0.00 0.00 76 1010.8
20260831074527 27 341 0.0 1.6 0.00 0.00 0.00 76 1010.7
20260831073028 27 341 0.0 3.2 0.00 0.00 0.00 75 1010.6
20260831071522 28 28 0.0 1.6 0.00 0.00 0.00 75 1010.7
20260831070028 28 28 0.0 3.2 0.00 0.00 0.00 74 1010.8
20260831064519 28 28 0.0 1.6 0.00 0.00 0.00 73 1010.7
20260831063018 28 28 0.0 1.6 0.00 0.00 0.00 73 1010.8
20260831061518 28 28 0.0 3.2 0.00 0.00 0.00 72 1010.9
20260831060017 28 28 0.0 3.2 0.00 0.00 0.00 72 1010.9
20260831054517 28 28 0.0 1.6 0.00 0.00 0.00 72 1011.0
20260831053017 28 28 0.0 1.6 0.00 0.00 0.00 73 1011.1
20260831051524 28 28 0.0 0.0 0.00 0.00 0.00 73 1010.9
20260831050016 28 28 0.0 0.0 0.00 0.00 0.00 73 1010.9
20260831044516 29 28 0.0 1.6 0.00 0.00 0.00 73 1010.8
20260831043015 29 28 0.0 1.6 0.00 0.00 0.00 73 1010.8
20260831041523 29 28 0.0 1.6 0.00 0.00 0.00 73 1010.7
20260831040014 30 28 0.0 3.2 0.00 0.00 0.00 72 1010.4
20260831034516 30 28 0.0 4.8 0.00 0.00 0.00 71 1010.3
20260831033014 30 40 0.0 3.2 0.00 0.00 0.00 70 1010.0
20260831031512 30 101 0.0 1.6 0.00 0.00 0.00 69 1009.7
20260831030016 30 101 0.0 1.6 0.00 0.00 0.00 68 1009.6
20260831024512 30 106 0.0 1.6 0.00 0.00 0.00 66 1009.6
20260831023012 31 106 0.0 1.6 0.00 0.00 0.00 65 1009.4
20260831021511 31 106 0.0 0.0 0.00 0.00 0.00 63 1009.1
20260831020011 31 106 0.0 1.6 0.00 0.00 0.00 63 1009.1
20260831014510 32 106 0.0 1.6 0.00 0.00 0.00 61 1008.7
20260831013010 32 106 0.0 1.6 0.00 0.00 0.00 62 1008.4
20260831011514 32 106 0.0 0.0 0.00 0.00 0.00 62 1008.4
20260831010010 32 106 0.0 0.0 0.00 0.00 0.00 63 1008.2
20260831004508 32 106 0.0 3.2 0.00 0.00 0.00 64 1008.1
20260831003007 32 106 0.0 3.2 0.00 0.00 0.00 64 1008.0
20260831001508 32 119 0.0 3.2 0.00 0.00 0.00 63 1007.7
20260831000007 32 121 0.0 3.2 0.00 0.00 0.00 61 1007.6
20260830234505 33 54 0.0 0.0 0.00 0.00 0.00 62 1007.7
20260830233005 33 279 0.0 1.6 0.00 0.00 0.00 60 1007.8
20260830231506 33 279 0.0 1.6 0.00 0.00 0.00 58 1008.0
20260830230002 33 279 0.0 3.2 0.00 0.00 0.00 56 1008.2
20260830224559 33 282 0.0 4.8 0.00 0.00 0.00 58 1008.4
20260830223101 32 218 1.6 12.9 0.00 0.00 0.00 59 1008.5
20260830221557 31 189 1.6 9.7 0.00 0.00 0.00 63 1008.7
20260830220054 31 224 0.0 9.7 0.00 0.00 0.00 65 1009.0
20260830214553 32 171 1.6 11.3 0.00 0.00 0.00 62 1009.1
20260830213051 31 194 1.6 6.4 0.00 0.00 0.00 60 1009.2
20260830211551 31 254 1.6 9.7 0.00 0.00 0.00 60 1009.5
20260830210051 30 247 1.6 9.7 0.00 0.00 0.00 62 1009.8
20260830204544 30 246 3.2 12.9 0.00 0.00 0.00 62 1010.2
20260830203054 30 250 4.8 14.5 0.00 0.00 0.00 64 1010.5
20260830201547 30 253 1.6 11.3 0.00 0.00 0.00 65 1010.8
20260830200040 30 87 0.0 1.6 0.00 0.00 0.00 65 1011.1
20260830194539 30 85 1.6 9.7 0.00 0.00 0.00 64 1011.2
20260830193039 31 88 0.0 14.5 0.00 0.00 0.00 65 1011.3
20260830191539 33 127 3.2 20.9 0.00 0.00 0.00 64 1010.9
20260830190038 34 148 1.6 19.3 0.00 0.00 0.00 64 1011.3
20260830184536 33 189 6.4 17.7 0.00 0.00 0.00 67 1011.3
20260830183035 34 153 9.7 19.3 0.00 0.00 0.00 70 1011.6
20260830181539 34 163 4.8 12.9 0.00 0.00 0.00 69 1011.5
20260830180036 33 153 4.8 16.1 0.00 0.00 0.00 70 1011.7